Location: Hilton Head Island
(32.2163°N, 80.7526°W)
Time: 20:55:29
(UTC-05:00)

Transit 2A Rocket - Pass Details

Date: 11 February 2026
Orbit: 583 x 900 km, 66.7° (Epoch: 5 March)

Event Time Altitude Azimuth Distance (km) Brightness Sun altitude
Rises 18:52:27 0° 249° (WSW) 3,460 10.3 -10.4°
Reaches altitude 10° 18:55:48 10° 268° (W) 2,553 9.2 -11.1°
Maximum altitude 18:59:42 18° 309° (NW) 2,074 7.8 -12.0°
Drops below altitude 10° 19:03:38 10° 350° (N) 2,576 7.7 -12.8°
Sets 19:07:03 0° 9° (N) 3,503 8.2 -13.5°
